Location: Carrières
(48.9495°N, 2.0407°E)
Time: 18:45:49
(UTC+00:00)

SR - Pass Details

Date: 25 April 2024
Orbit: 579 x 860 km, 66.7° (Epoch: 22 May)

Event Time Altitude Azimuth Distance (km) Brightness Sun altitude
Rises 03:58:04 0° 294° (WNW) 3,198 ? -7.2°
Reaches altitude 10° 04:02:43 10° 332° (NNW) 2,188 ? -6.5°
Maximum altitude 04:03:53 11° 346° (NNW) 2,118 ? -6.4°
Drops below altitude 10° 04:05:01 10° 359° (N) 2,145 ? -6.2°
Sets 04:09:23 0° 38° (NE) 2,978 ? -5.6°
